Location: İstanbul
(41.0082°N, 28.9784°E)
Time: 04:15:50
(UTC+03:00)

CAS-6 - Pass Details

Date: 25 April 2024
Orbit: 607 x 628 km, 97.8° (Epoch: 24 May)

Event Time Altitude Azimuth Distance (km) Brightness Sun altitude
Exits shadow 23:23:47 34° 342° (NNW) 1,023 ? -30.9°
Drops below altitude 10° 23:26:16 10° 346° (NNW) 1,987 ? -31.1°
Sets 23:28:28 0° 347° (NNW) 2,893 ? -31.3°
